Regional Weather Roundup
Issued by NWS Kansas City/Pleasant Hill, MO

Home | Current Version | Previous Version | Text Only | Print | Product List | Glossary On
Versions: 1 2 3 4 5 6 7 8 9 10 11 12 13 14 15 16 17 18 19 20 21 22 23 24 25 26 27 28 29 30 31 32 33 34 35 36 37 38 39 40 41 42 43 44 45 46 47 48 49 50
000
ASUS43 KEAX 062210
RWREAX

WEATHER ROUNDUP FOR EASTERN KANSAS AND NORTHWEST MISSOURI
NATIONAL WEATHER SERVICE KANSAS CITY/PLEASANT HILL MO
500 PM CDT MON JUL 06 2015

KSZ040-057-103>105-MOZ028-029-037-043-062300-
...KANSAS CITY METROPOLITAN AREA...

CITY           SKY/WX    TMP DP  RH WIND       PRES   REMARKS
K.C. INTL      TSTM      72  71  97 NW22G35   29.86R VSB 1
K.C. DOWNTOWN  TSTM      76  71  85 W15G44    29.84R
LEES SUMMIT    MOSUNNY   85  73  67 S10G22    29.85R HX  91
OLATHE - IXD   HAZE      80  74  81 S20G38    29.84R THUNDER VSB 1
OLATHE - OJC   PTSUNNY   83  74  74 S13       29.83R THUNDER
LAWRENCE       TSTM      78  71  79 VRB7G20   29.86R

$$

MOZ001>008-011>017-020>025-030>033-038>040-044>046-053-054-062300-
...NORTHERN AND CENTRAL MISSOURI...

CITY           SKY/WX    TMP DP  RH WIND       PRES   REMARKS
ST. JOSEPH     CLOUDY    72  71  97 MISG      29.89R
MOSBY          TSTM      81  73  78 NW22G29   29.86R
WARRENSBURG    MOSUNNY   84  72  65 S12G17    29.85R
WHITEMAN AFB   MOSUNNY   85  76  73 S12G22    29.85R HX  94
CLINTON        MOSUNNY   88  77  70 S12G17    29.88R HX 100
SEDALIA        MOSUNNY   87  74  64 S12G22    29.88F HX  95
WARSAW         NOT AVBL
CHILLICOTHE      N/A     75  72  90 VRB5      29.87R
KIRKSVILLE     LGT RAIN  80  73  79 S10       29.83F

$$

MOZ041-047>049-056>058-063>065-088>090-097-062300-
...EASTERN AND SOUTHERN MISSOURI...

CITY           SKY/WX    TMP DP  RH WIND       PRES   REMARKS
ST. LOUIS INTL TSTM      79  70  73 SW10      29.93F
SPIRIT OF STL  PTSUNNY   81  73  76 S9        29.89F
COLUMBIA       MOSUNNY   85  73  67 S15       29.86F HX  91
JEFFERSON CITY MOSUNNY   87  73  62 S10G20    29.85F HX  94
ROLLA          MOSUNNY   85  73  67 S14       29.91F HX  91
OSAGE BEACH    MOSUNNY   88  72  58 S12G17    29.88F HX  94
SPRINGFIELD    MOSUNNY   85  72  65 S18G26    29.90F HX  91
BRANSON        PTSUNNY   81  75  83 S8        29.96F
JOPLIN         MOSUNNY   86  74  67 S20       29.89F HX  94
WEST PLAINS    CLOUDY    83  70  64 S10       29.98F

$$

IAZ060-094-KSZ022-034>040-054-083-096-NEZ052-066-093-062300-
...KANSAS...SOUTHEAST NEBRASKA AND IOWA...

CITY           SKY/WX    TMP DP  RH WIND       PRES   REMARKS
TOPEKA         TSTM      72  70  93 NW15      29.86R FOG
MANHATTAN      LGT RAIN  74  72  93 N8        29.87R
EMPORIA        TSTM      70  69  97 NW18G28   29.91R VSB 3/4
CHANUTE        MOSUNNY   87  73  62 S17       29.85R HX  94
WICHITA        TSTM      77  73  87 N23G30    29.77S VSB 3/4
OMAHA          PTSUNNY   76  67  73 N23G33    29.91R
LINCOLN        CLOUDY    72  68  87 N16       29.94R
FALLS CITY     CLOUDY    74  71  91 N7        29.88R
LAMONI         RAIN      74  72  93 N5        29.85F FOG
DES MOINES     CLOUDY    75  70  84 W3        29.86F

$$



USA.gov is the U.S. government's official web portal to all federal, state and local government web resources and services.